SCP
0 0 0 0 0 0 0 0 0 0 0 0 0 0 0 0 0 0 0 0 0 0 0 0 0 0 0 0 0 0 0 0 0 0 0 0 0 0
0 0 0 0 0 0 0 0 0 0 0 0 0 0 0 0 0 0 0 0 0 0 0 0 0 0 0 0 0 0 0 0 0 0 0 0 0 0
0 0 0 0 0 0 0 0 0 0 0 0 0 0 0 0 0 0 0 0 0 0 0 0 0 0 0 0 0 0 0 0 0 0 0 0 0 0
0 0 0 0 0 0 0 0 0 0 0 0 0 0 0 0 0 0 0 0 0 0 0 0 0 0 0 0 0 0 0 0 0 0 0 0 0 0
0 0 0 0 0 0 0 0 0 0 0 0 0 0 0 0 0 0 0 0 0 0 0 0 0 0 0 0 0 0 0 0 0 0 0 0 0 0
0 0 0 0 0 0 0 0 0 0 0 0 0 0 0 0 0 0 0 0 0 0 0 0 0 0 0 0 0 0 0 0 0 0 0 0 0 0
0 0 0 0 0 0 0 0 0 0 0 0 0 0 0 0 0 0 0 0 0 0 0 0 0 0 0 0 0 0 0 0 0 0 0 0 0 0
0 0 0 0 0 0 0 0 0 0 0 0 0 0 0 0 0 0 0 0 0 0 0 0 0 0 0 0 0 0 0 0 0 0 0 0 0 0
0 0 0 0 0 0 0 0 0 0 0 0 0 0 0 0 0 0 0 0 0 0 0 0 0 0 0 0 0 0 0 0 0 0 0 0 0 0
0 0 0 0 0 0 0 0 0 0 0 0 0 0 0 0 0 0 0 0 0 0 0 0 0 0 0 0 0 0 0 0 0 0 0 0 0 0
0 0 0 0 0 0 0 0 0 0 0 0 0 0 0 0 0 0 0 0 0 0 0 0 0 0 0 0 0 0 0 0 0 0 0 0 0 0
0 0 0 0 0 0 0 0 0 0 0 0 0 0 0 0 0 0 0 0 0 0 0 0 0 0 0 0 0 0 0 0 0 0 0 0 0 0
0 0 0 0 0 0 0 0 0 0 0 0 0 0 0 0 0 0 0 0 0 0 0 0 0 0 0 0 0 0 0 0 0 0 0 0 0 0
0 0 0 0 0 0 0 0 0 0 0 0 0 0 0 0 0 0 0 0 0 0 0 0 0 0 0 0 0 0 0 0 0 0 0 0 0 0
0 0 0 0 0 0 0 0 0 0 0 0 0 0 0 0 0 0 0 0 0 0 0 0 0 0 0 0 0 0 0 0 0 0 0 0 0 0
0 0 0 0 0 0 0 0 0 0 0 0 0 0 0 0 0 0 0 0 0 0 0 0 0 0 0 0 0 0 0 0 0 0 0 0 0 0
0 0 0 0 0 0 0 0 0 0 0 0 0 0 0 0 0 0 0 0 0 0 0 0 0 0 0 0 0 0 0 0 0 0 0 0 0 0
0 0 0 0 0 0 0 0 0 0 0 0 0 0 0 0 0 0 0 0 0 0 0 0 0 0 0 0 0 0 0 0 0 0 0 0 0 0
0 0 0 0 0 0 0 0 0 0 0 0 0 0 0 0 0 0 0 0 0 0 0 0 0 0 0 0 0 0 0 0 0 0 0 0 0 0
0 0 0 0 0 0 0 0 0 0 0 0 0 0 0 0 0 0 0 0 0 0 0 0 0 0 0 0 0 0 0 0 0 0 0 0 0 0
0 0 0 0 0 0 0 0 0 0 0 0 0 0 0 0 0 0 0 0 0 0 0 0 0 0 0 0 0 0 0 0 0 0 0 0 0 0
0 0 0 0 0 0 0 0 0 0 0 0 0 0 0 0 0 0 0 0 0 0 0 0 0 0 0 0 0 0 0 0 0 0 0 0 0 0
0 0 0 0 0 0 0 0 0 0 0 0 0 0 0 0 0 0 0 0 0 0 0 0 0 0 0 0 0 0 0 0 0 0 0 0 0 0
Wind_Speed
6 6 4 3 3 2 2 1 1 1 2 2 2 2 3 4 6 6 6 10 12 11 11 11 13 14 15 16 17 18 18 19 20 20 21 21 22 22
4 5 4 2 2 2 1 1 0 1 2 2 3 4 5 6 8 7 7 12 11 12 12 12 13 14 16 16 17 17 18 19 19 19 20 21 22 22
5 4 3 2 2 1 1 0 0 1 2 3 3 3 5 6 7 6 6 6 6 11 13 13 13 14 15 15 16 17 17 17 18 19 20 20 21 21
5 4 4 3 2 1 1 1 1 2 2 4 4 4 5 7 7 8 7 6 6 10 13 14 15 14 13 13 14 14 14 15 16 17 18 19 20 20
4 4 4 3 3 2 2 1 1 1 2 3 5 4 4 5 6 6 7 6 6 8 11 12 12 13 13 13 13 13 12 12 13 15 16 17 18 18
5 4 4 3 3 3 2 2 2 2 3 3 5 5 5 5 4 5 6 6 7 7 8 8 10 13 13 13 14 13 12 11 11 12 13 13 14 15
6 6 5 5 5 3 3 3 3 3 4 4 5 5 6 6 5 4 6 8 8 5 5 6 7 7 8 10 11 12 12 11 11 11 11 12 12 13
7 7 6 5 8 8 9 8 6 5 6 5 5 7 8 7 6 6 6 6 5 3 4 8 6 7 6 6 10 12 12 11 11 11 11 11 12 12
6 6 5 6 7 6 8 10 9 10 8 6 7 8 8 7 7 8 7 6 6 6 4 6 6 7 6 7 11 12 11 11 12 12 12 12 12 12
6 6 6 7 6 8 8 9 9 8 8 6 7 8 9 8 7 6 6 6 6 5 3 4 5 6 7 6 8 9 10 11 12 13 12 12 11 12
7 7 7 7 9 10 8 8 9 8 7 7 8 9 11 10 7 3 4 4 5 5 2 3 4 6 6 4 6 9 10 12 13 13 13 12 11 11
7 7 8 9 11 11 7 6 8 8 8 9 8 7 6 6 5 2 3 3 4 4 2 2 3 4 5 4 6 7 7 10 12 12 12 12 11 7
6 7 7 12 13 12 8 5 7 8 7 7 6 6 5 4 3 3 2 3 3 4 3 3 3 3 3 5 6 6 7 7 7 7 9 11 10 7
6 6 8 13 13 11 7 6 9 7 4 4 4 4 4 4 4 5 4 4 5 6 6 4 3 3 4 4 5 6 8 7 6 6 7 8 8 7
6 10 12 12 10 7 7 9 7 4 4 4 4 4 4 4 5 4 4 4 4 4 3 3 3 3 3 4 5 5 5 6 6 7 7 6 5 5
7 9 10 8 7 6 6 6 4 4 3 3 4 4 4 4 3 3 3 4 4 4 4 3 3 3 3 5 4 5 6 5 6 7 6 5 4 4
7 4 5 5 7 7 6 6 5 5 4 4 4 4 4 4 4 3 3 3 3 4 5 5 5 3 4 4 4 5 6 5 5 6 5 5 4 5
5 4 5 5 6 6 6 6 5 5 5 5 5 4 4 5 4 4 3 3 3 4 4 4 5 5 3 1 2 5 5 5 6 6 5 4 5 5
4 5 5 6 6 6 6 5 5 6 5 5 5 5 5 4 4 4 4 4 4 4 4 4 4 4 5 6 5 3 4 5 6 5 5 4 4 6
4 5 5 5 5 6 6 6 6 6 5 5 5 5 5 5 5 5 5 5 4 4 4 4 4 4 4 4 5 4 5 5 5 6 6 4 4 5
5 5 5 5 5 6 6 6 6 5 6 6 5 6 5 5 5 5 5 5 4 4 5 5 5 5 3 3 3 5 5 5 4 4 6 5 5 6
5 5 5 6 6 6 6 6 6 6 7 6 6 6 6 5 5 6 5 5 4 4 4 4 5 4 4 5 5 6 6 6 5 5 6 6 4 5
5 5 5 6 6 5 6 7 7 6 6 6 6 6 6 5 5 4 4 4 4 5 4 4 4 4 4 5 5 6 8 8 6 6 6 9 8 7
Wind_Direction
61 61 59 47 44 44 55 100 174 268 286 303 307 316 329 319 318 319 313 309 307 303 301 298 295 292 290 288 287 285 283 282 282 281 279 278 276 274
54 58 52 46 42 40 43 47 120 213 264 287 284 299 311 312 314 317 305 305 304 301 299 296 293 291 288 286 284 284 284 283 282 281 280 279 278 276
40 45 38 29 32 31 43 60 171 202 253 281 277 291 295 298 308 307 298 291 287 290 293 292 292 290 288 287 288 288 287 286 285 283 282 281 280 278
24 20 10 5 1 356 353 325 258 229 239 280 292 296 289 297 301 303 302 299 292 290 291 293 294 293 294 294 294 291 288 286 284 284 283 281 279 278
12 3 347 348 345 335 326 312 290 276 241 263 286 288 288 297 305 303 302 299 297 295 293 292 295 298 300 300 295 291 286 281 281 282 282 282 281 280
3 354 341 327 315 312 312 308 301 298 284 279 288 293 291 296 294 302 309 310 309 304 295 295 296 300 299 299 297 295 293 289 286 284 282 280 280 279
358 353 342 345 354 345 336 318 307 298 298 296 296 296 300 306 306 300 301 308 304 290 299 301 302 299 299 298 298 298 298 295 292 290 286 280 276 274
352 346 341 356 358 355 345 334 318 303 297 289 289 292 296 297 295 295 299 305 306 297 300 303 302 297 299 295 296 298 299 299 298 295 290 285 279 273
344 339 338 341 345 336 330 327 321 310 292 275 276 280 287 290 294 296 293 291 289 297 299 297 302 303 305 302 306 304 302 304 306 302 296 292 286 279
336 327 323 324 330 332 324 318 314 309 298 282 264 275 279 284 279 279 288 292 286 282 264 282 300 308 311 309 304 307 312 313 314 311 305 299 291 283
333 330 325 319 318 326 323 317 315 313 312 302 287 284 284 286 284 278 290 298 309 309 274 272 296 310 306 298 309 314 316 316 315 314 310 307 302 294
328 326 326 321 319 323 318 308 307 310 321 324 320 317 311 310 308 270 277 295 305 303 301 299 296 312 306 301 314 321 324 319 317 314 315 315 312 305
322 325 322 323 322 321 315 291 285 295 305 308 312 320 328 329 328 319 276 256 279 285 294 305 293 298 290 303 311 318 324 325 325 320 319 319 316 310
312 315 314 317 320 322 324 318 314 313 307 315 325 332 332 328 324 318 305 277 254 263 281 283 276 292 301 303 305 317 323 326 328 326 327 325 324 321
308 310 316 321 326 331 335 335 336 334 330 333 333 324 310 305 310 316 319 319 309 293 287 270 266 281 282 292 305 309 314 318 329 330 328 331 334 333
327 322 324 331 342 339 335 339 342 335 329 323 316 312 314 322 329 334 328 334 333 333 330 312 289 276 287 299 301 312 320 319 326 332 329 329 339 345
324 331 351 351 354 352 348 343 345 351 350 340 333 331 332 335 333 331 322 324 331 334 338 341 334 306 259 276 313 323 327 328 329 334 332 335 344 354
351 355 351 351 349 346 343 340 342 347 341 335 333 334 330 330 332 336 334 331 332 331 333 335 341 346 345 281 255 315 331 333 335 339 343 334 343 353
15 359 351 347 343 339 338 336 332 330 327 330 331 331 330 330 331 334 339 336 335 334 335 337 343 348 355 357 341 328 333 335 341 348 349 342 338 340
4 353 347 343 341 338 336 334 331 334 337 336 335 336 337 334 335 337 339 337 332 333 340 348 349 344 338 334 326 321 336 342 344 349 347 336 332 331
351 349 345 342 340 337 335 333 332 333 336 335 338 340 342 340 340 341 340 340 343 345 348 350 339 328 314 327 346 356 353 355 359 356 349 347 350 2
347 345 343 342 341 339 337 336 337 340 343 343 339 338 337 339 342 343 345 346 348 349 345 347 356 12 21 22 15 2 2 5 13 21 27 19 1 1
346 342 342 344 345 342 340 340 340 338 340 338 335 335 336 338 340 346 352 357 358 4 5 4 11 21 24 20 17 17 17 16 16 23 30 21 25 32